{"data":{"norad_id":67785,"intl_designator":"2026-030X","name":"KUIPER-00226","alt_names":[],"object_type":"PAYLOAD","status":"ACTIVE","operator":null,"country":"US","launch_date":"2026-02-12","launch_site_code":"FRGUI","launch_vehicle":null,"mission":null,"orbit_class":"UNKNOWN","rcs_meters":null,"size_class":null,"mass_kg":null,"dimensions":null,"purposes":[],"wikipedia_slug":null,"has_3d_model":false,"image_url":null,"decayed_at":null,"tle_current":{"epoch":"2026-09-20T21:50:49.140672Z","epoch_age_seconds":51120,"freshness":"FRESH","line1":"1 67785U 26030X   26263.91029098  .00002061  00000+0  29931-3 0  9996","line2":"2 67785  51.9004  42.3188 0001351  17.7227 342.3783 14.79922809 34475","mean_motion":14.79922809,"eccentricity":0.0001351,"inclination_deg":51.9004,"raan_deg":42.3188,"arg_perigee_deg":17.7227,"mean_anomaly_deg":342.3783,"bstar":0.00029931,"rev_number":3447,"period_min":97.302372207712,"perigee_km":628.62105890281,"apogee_km":630.51454073972,"semimajor_km":7007.7047998213,"source":"CELESTRAK","updated_at":"2026-09-21T09:00:16.856572Z"}}}